Oxford, NC

5:13 PM EDT on March 28, 2017 (GMT -0400)
Henderson-Oxford

Weather History for KHNZ - April, 2014

Change the Weather History Date:

Thursday, April 17, 2014

  Actual Average (KTDF) Record (KTDF)
Temperature  
Mean Temperature 46 °F -  
Max Temperature 61 °F 72 °F 95 °F (2002)
Min Temperature 30 °F 45 °F 30 °F (2014)
Degree Days  
Heating Degree Days 20    
Moisture  
Dew Point 31 °F    
Average Humidity 61    
Maximum Humidity 96    
Minimum Humidity 28    
Precipitation  
Precipitation 0.00 in - - ()
Sea Level Pressure  
Sea Level Pressure 30.50 in    
Wind  
Wind Speed 5 mph (NE)    
Max Wind Speed 14 mph    
Max Gust Speed 18 mph    
Visibility 10 miles    
Events      
Averages and records for this station are not official NWS values.
T = Trace of Precipitation, MM = Missing Value Source: NWS Daily Summary

Daily Weather History Graph

Daily Weather History Graph

Search for Another Location

Airport or City:

Trip Planner

Search our weather history database for the weather conditions in past years. The results will help you decide how hot, cold, wet, or windy it might be!

Date:

Astronomy

Apr. 17, 2014 Rise Set
Actual Time 6:37 AM EDT 7:49 PM EDT
Civil Twilight 6:11 AM EDT 8:16 PM EDT
Nautical Twilight 5:39 AM EDT 8:48 PM EDT
Astronomical Twilight 5:06 AM EDT 9:21 PM EDT
Moon 10:30 PM EDT (4/17) 8:11 AM EDT (4/17)
Length of Visible Light 14h 05m
Length of Day
13h 11m
Waning Gibbous, 94% of the Moon is Illuminated
Apr 17
Waning Gibbous
Apr 22
Last Quarter
Apr 29
New
May 6
First Quarter
May 14
Full

Hourly Weather History & Observations

Time (EDT) Temp. Windchill Dew Point Humidity Pressure Visibility Wind Dir Wind Speed Gust Speed Precip Events Conditions
12:15 AM 37.2 °F 32.6 °F 27.3 °F 67% 30.48 in 10.0 mi ENE 5.8 mph - N/A   Clear
12:35 AM 37.4 °F 33.8 °F 26.8 °F 66% 30.49 in 10.0 mi ENE 4.6 mph - N/A   Clear
12:55 AM 36.7 °F 32.9 °F 27.3 °F 69% 30.49 in 10.0 mi ENE 4.6 mph - N/A   Clear
1:15 AM 36.3 °F 33.7 °F 27.3 °F 70% 30.49 in 10.0 mi East 3.5 mph - N/A   Clear
1:35 AM 35.6 °F - 27.7 °F 73% 30.49 in 10.0 mi Calm Calm - N/A   Clear
1:55 AM 36.1 °F - 28.0 °F 72% 30.49 in 10.0 mi Calm Calm - N/A   Clear
2:15 AM 35.1 °F - 28.2 °F 76% 30.49 in 10.0 mi Calm Calm - N/A   Clear
2:35 AM 34.7 °F - 29.1 °F 80% 30.49 in 10.0 mi Calm Calm - N/A   Clear
2:55 AM 34.0 °F - 28.9 °F 82% 30.48 in 10.0 mi Calm Calm - N/A   Clear
3:15 AM 34.0 °F - 29.5 °F 84% 30.49 in 10.0 mi Calm Calm - N/A   Clear
3:35 AM 32.2 °F - 28.8 °F 87% 30.49 in 10.0 mi Calm Calm - N/A   Clear
3:55 AM 32.2 °F - 30.2 °F 92% 30.49 in 10.0 mi Calm Calm - N/A   Clear
4:15 AM 32.0 °F - 29.1 °F 89% 30.50 in 10.0 mi Calm Calm - N/A   Clear
4:35 AM 31.8 °F - 29.5 °F 91% 30.50 in 10.0 mi Calm Calm - N/A   Clear
4:55 AM 32.0 °F - 30.0 °F 92% 30.50 in 10.0 mi Calm Calm - N/A   Clear
5:15 AM 32.0 °F - 30.0 °F 92% 30.50 in 10.0 mi Calm Calm - N/A   Clear
5:35 AM 30.7 °F - 28.9 °F 93% 30.50 in 10.0 mi Calm Calm - N/A   Clear
5:55 AM 31.8 °F - 30.2 °F 94% 30.51 in 10.0 mi Calm Calm - N/A   Clear
6:15 AM 32.0 °F 27.5 °F 30.7 °F 95% 30.51 in 10.0 mi North 4.6 mph - N/A   Clear
6:35 AM 32.0 °F - 30.6 °F 94% 30.52 in 10.0 mi Calm Calm - N/A   Clear
6:55 AM 32.4 °F 29.1 °F 31.1 °F 95% 30.53 in 10.0 mi North 3.5 mph - N/A   Clear
7:15 AM 32.4 °F - 31.3 °F 96% 30.54 in 10.0 mi Calm Calm - N/A   Clear
7:35 AM 33.4 °F 28.1 °F 32.0 °F 94% 30.54 in 10.0 mi North 5.8 mph - N/A   Clear
7:55 AM 34.5 °F 29.4 °F 32.2 °F 91% 30.55 in 10.0 mi North 5.8 mph - N/A   Clear
8:15 AM 36.0 °F 30.3 °F 32.9 °F 89% 30.55 in 10.0 mi North 6.9 mph - N/A   Clear
8:35 AM 38.3 °F 33.9 °F 33.3 °F 82% 30.56 in 10.0 mi NNE 5.8 mph - N/A   Clear
8:55 AM 40.6 °F 34.8 °F 32.0 °F 71% 30.56 in 10.0 mi NNE 9.2 mph - N/A   Clear
9:15 AM 42.8 °F 38.0 °F 31.1 °F 63% 30.56 in 10.0 mi NE 8.1 mph - N/A   Clear
9:35 AM 43.9 °F 37.5 °F 29.8 °F 58% 30.56 in 10.0 mi NE 12.7 mph 18.4 mph N/A   Clear
9:55 AM 45.0 °F 39.3 °F 29.5 °F 55% 30.57 in 10.0 mi NE 11.5 mph - N/A   Clear
10:15 AM 46.6 °F - 29.5 °F 51% 30.57 in 10.0 mi ENE 13.8 mph - N/A   Clear
10:35 AM 47.7 °F - 30.6 °F 52% 30.58 in 10.0 mi North 5.8 mph - N/A   Clear
10:55 AM 48.4 °F - 29.5 °F 48% 30.58 in 10.0 mi NE 9.2 mph - N/A   Clear
11:15 AM 49.3 °F - 29.3 °F 46% 30.57 in 10.0 mi NNE 10.4 mph - N/A   Clear
11:35 AM 50.5 °F - 28.6 °F 43% 30.57 in 10.0 mi NE 5.8 mph - N/A   Clear
11:55 AM 51.1 °F - 27.7 °F 40% 30.56 in 10.0 mi NNE 10.4 mph - N/A   Clear
12:15 PM 51.8 °F - 26.6 °F 38% 30.56 in 10.0 mi NNE 5.8 mph - N/A   Clear
12:35 PM 53.6 °F - 26.4 °F 35% 30.55 in 10.0 mi NNE 6.9 mph - N/A   Clear
12:55 PM 54.5 °F - 26.2 °F 34% 30.54 in 10.0 mi East 9.2 mph - N/A   Clear
1:15 PM 55.0 °F - 26.1 °F 33% 30.54 in 10.0 mi ENE 11.5 mph - N/A   Clear
1:35 PM 56.3 °F - 24.4 °F 29% 30.53 in 10.0 mi ENE 10.4 mph - N/A   Clear
1:55 PM 56.3 °F - 27.0 °F 32% 30.52 in 10.0 mi NNE 4.6 mph - N/A   Clear
2:15 PM 57.7 °F - 27.1 °F 31% 30.51 in 10.0 mi NE 8.1 mph - N/A   Clear
2:35 PM 58.6 °F - 25.0 °F 28% 30.51 in 10.0 mi ENE 8.1 mph - N/A   Clear
2:55 PM 59.0 °F - 25.7 °F 28% 30.50 in 10.0 mi ENE 8.1 mph - N/A   Clear
3:15 PM 59.0 °F - 27.9 °F 31% 30.49 in 10.0 mi NE 5.8 mph - N/A   Clear
3:35 PM 59.0 °F - 28.2 °F 31% 30.48 in 10.0 mi ENE 3.5 mph - N/A   Clear
3:55 PM 59.9 °F - 29.5 °F 32% 30.47 in 10.0 mi East 6.9 mph - N/A   Clear
4:15 PM 60.4 °F - 29.8 °F 31% 30.47 in 10.0 mi Calm Calm - N/A   Clear
4:35 PM 60.1 °F - 30.2 °F 32% 30.46 in 10.0 mi NNE 5.8 mph - N/A   Clear
4:55 PM 60.8 °F - 30.7 °F 32% 30.46 in 10.0 mi NE 8.1 mph - N/A   Clear
5:15 PM 61.3 °F - 31.3 °F 32% 30.45 in 10.0 mi ENE 8.1 mph - N/A   Clear
5:35 PM 60.8 °F - 30.4 °F 32% 30.45 in 10.0 mi East 3.5 mph - N/A   Clear
5:55 PM 60.8 °F - 31.5 °F 33% 30.45 in 10.0 mi NE 6.9 mph - N/A   Clear
6:15 PM 60.3 °F - 31.1 °F 33% 30.45 in 10.0 mi NE 8.1 mph - N/A   Clear
6:35 PM 59.9 °F - 31.8 °F 35% 30.45 in 10.0 mi East 8.1 mph - N/A   Clear
6:55 PM 59.0 °F - 32.7 °F 37% 30.44 in 10.0 mi ENE 9.2 mph - N/A   Clear
7:15 PM 57.4 °F - 32.5 °F 39% 30.43 in 10.0 mi NE 8.1 mph - N/A   Clear
7:35 PM 55.8 °F - 34.5 °F 45% 30.44 in 10.0 mi ENE 6.9 mph - N/A   Clear
7:55 PM 53.4 °F - 35.4 °F 51% 30.44 in 10.0 mi ENE 3.5 mph - N/A   Clear
8:15 PM 51.3 °F - 36.5 °F 57% 30.44 in 10.0 mi East 5.8 mph - N/A   Clear
8:35 PM 50.5 °F - 36.7 °F 59% 30.45 in 10.0 mi East 4.6 mph - N/A   Clear
8:55 PM 50.5 °F - 37.4 °F 61% 30.47 in 10.0 mi East 6.9 mph - N/A   Clear
9:15 PM 50.5 °F - 38.5 °F 63% 30.47 in 10.0 mi East 5.8 mph - N/A   Clear
9:35 PM 49.6 °F - 38.5 °F 65% 30.48 in 10.0 mi East 9.2 mph - N/A   Clear
9:55 PM 47.8 °F - 38.3 °F 70% 30.49 in 10.0 mi ENE 10.4 mph - N/A   Clear
10:15 PM 47.8 °F - 37.8 °F 68% 30.49 in 10.0 mi ENE 8.1 mph - N/A   Clear
10:35 PM 46.6 °F - 37.6 °F 71% 30.49 in 10.0 mi ENE 10.4 mph - N/A   Clear
10:55 PM 45.5 °F 41.3 °F 37.4 °F 73% 30.50 in 10.0 mi ENE 8.1 mph - N/A   Clear
11:15 PM 44.6 °F 39.7 °F 36.9 °F 74% 30.50 in 10.0 mi ENE 9.2 mph - N/A   Clear
11:35 PM 43.9 °F 38.8 °F 36.5 °F 75% 30.51 in 10.0 mi ENE 9.2 mph - N/A   Clear
11:55 PM 43.0 °F 37.7 °F 36.1 °F 77% 30.51 in 10.0 mi ENE 9.2 mph - N/A   Clear